Location: Gälforsberget
(66.6500°N, 22.4167°E)
Time: 05:58:16
(UTC+00:00)

Cosmos 1174 - Pass Details

Date: 11 April 2026
Orbit: 369 x 1032 km, 66.1° (Epoch: 10 May)

Event Time Altitude Azimuth Distance (km) Brightness Sun altitude
Rises 20:10:05 0° 286° (WNW) 2,838 8.4 -10.6°
Reaches altitude 10° 20:12:32 10° 283° (WNW) 1,822 7.2 -10.7°
Maximum altitude 20:16:29 60° 204° (SSW) 555 3.7 -10.9°
Enters shadow 20:19:00 16° 127° (SE) 1,220 5.0 -11.1°
